Location: Unspecified
(0.0000°N, 0.0000°E)
Time: 16:44:40
(UTC+00:00)

Envisat - Pass Details

Date: 19 March 2019
Orbit: 764 x 766 km, 98.2° (Epoch: 23 May)

Event Time Altitude Azimuth Distance (km) Brightness Sun altitude
Rises 18:36:38 0° 155° (SSE) 3,228 6.0 -7.2°
Reaches altitude 10° 18:39:03 10° 148° (SSE) 2,300 5.2 -7.8°
Maximum altitude 18:43:49 42° 78° (ENE) 1,079 3.3 -9.0°
Drops below altitude 10° 18:48:34 10° 8° (N) 2,292 5.4 -10.2°
Sets 18:50:58 0° 1° (N) 3,215 6.2 -10.8°
